Flag for Spain Weather past 2 weeks in Bilbao, Spain

Now
68 °F

Broken clouds.


Feels Like: 68 °F
Forecast: 66 / 75 °F
Wind: 3 mph from Northwest

Location: Bilbao / Sondica

Current Time: Jul 28, 2014 at 10:36:02 PM

Latest Report: Jul 28, 2014 at 10:00 PM


Visibility: N/A

Pressure: 30.09 "Hg

Humidity: 83%

Dew point: 63 °F

Location of BilbaoLocation

Historic Weather in Bilbao — Graph

°F

Bilbao temperature yesterday

Maximum temperature yesterday: 84 °F (at 1:30 PM)
Minimum temperature yesterday: 63 °F (at 6:00 AM)
Average temperature yesterday: 75 °F

Past Weeks' High & Low Weather Summary

 TemperatureHumidityPressure
High99 °F (Jul 17, 1:30 PM)100% (Jul 14, 6:30 AM)30.24 "Hg (Jul 14, 6:30 AM)
Low61 °F (Jul 15, 5:00 AM)27% (Jul 17, 1:30 PM)29.74 "Hg (Jul 19, 3:30 PM)
Average73 °F74%30.03 "Hg
* Reported Jul 13 9:00 PM — Jul 28 9:30 PM, Bilbao, Weather by CustomWeather, © 2014

Note: Actual official high and low records may vary slightly from our data, if they occured in-between our weather recording intervals... More about our weather records

Advertising

Bilbao weather history for previous 24 hours

 ConditionsComfort  
Time TempWeatherWind HumidityBarometerVisibility
9:30 PM
Jul 28
68 °FSprinkles. Broken clouds.7 mph88%30.07 "HgN/A
9:00 PM68 °FSprinkles. Broken clouds.5 mph88%30.07 "HgN/A
8:30 PM68 °FSprinkles. Broken clouds.3 mph94%30.07 "HgN/A
8:00 PM68 °FSprinkles. Broken clouds.5 mph94%30.07 "HgN/A
7:30 PM68 °FSprinkles. Scattered clouds.10 mph94%30.07 "HgN/A
7:00 PM72 °FScattered clouds.13 mph78%30.07 "HgN/A
6:30 PM72 °FScattered clouds.12 mph78%30.07 "HgN/A
6:00 PM72 °FScattered clouds.9 mph83%30.07 "HgN/A
5:30 PM70 °FSprinkles. Scattered clouds.7 mph88%30.07 "HgN/A
5:00 PM70 °FSprinkles. Scattered clouds.7 mph88%30.07 "HgN/A
4:30 PM73 °FScattered clouds.16 mph74%30.07 "HgN/A
4:00 PM75 °FScattered clouds.15 mph69%30.07 "HgN/A
3:30 PM77 °FScattered clouds.13 mph61%30.07 "HgN/A
3:00 PM77 °FScattered clouds.12 mph65%30.07 "HgN/A
2:30 PM77 °FScattered clouds.13 mph65%30.07 "HgN/A
2:00 PM77 °FScattered clouds.12 mph61%30.07 "HgN/A
1:30 PM77 °FBroken clouds.8 mph65%30.07 "HgN/A
1:00 PM77 °FBroken clouds.9 mph65%30.04 "HgN/A
12:30 PM75 °FBroken clouds.8 mph69%30.07 "HgN/A
12:00 PM75 °FBroken clouds.3 mph78%30.07 "HgN/A
11:30 AM73 °FBroken clouds.1 mph83%30.07 "HgN/A
11:00 AM72 °FSprinkles. Broken clouds.2 mph88%30.07 "HgN/A
10:30 AM70 °FSprinkles. Broken clouds.2 mph94%30.07 "HgN/A
10:00 AM70 °FBroken clouds.No wind88%30.07 "HgN/A
9:30 AM70 °FLight rain. Broken clouds.1 mph88%30.07 "HgN/A
9:00 AM70 °FBroken clouds.2 mph88%30.07 "HgN/A
8:30 AM70 °FBroken clouds.No wind88%30.07 "HgN/A
8:00 AM70 °FBroken clouds.1 mph88%30.07 "HgN/A
7:30 AM70 °FPartly cloudy.2 mph88%30.07 "HgN/A
7:00 AM70 °FPartly cloudy.1 mph88%30.07 "HgN/A
6:30 AM68 °FPartly cloudy.No wind94%30.07 "HgN/A
6:00 AM70 °FPassing clouds.No wind88%30.07 "HgN/A
5:30 AM68 °FPassing clouds.No wind94%30.07 "HgN/A
5:00 AM68 °FPassing clouds.No wind94%30.07 "HgN/A
1:00 AM70 °FPassing clouds.No wind88%30.09 "HgN/A
12:30 AM70 °FPassing clouds.No wind94%30.09 "HgN/A
12:00 AM70 °FPassing clouds.No wind88%30.09 "HgN/A
11:30 PM
Jul 27
72 °FPassing clouds.No wind88%30.09 "HgN/A
11:00 PM72 °FPassing clouds.1 mph88%30.09 "HgN/A
10:30 PM72 °FPassing clouds.3 mph88%30.09 "HgN/A
10:00 PM73 °FPassing clouds.3 mph83%30.09 "HgN/A
Weather by CustomWeather, © 2014

See weather overviewHow to use our weather pages